Location: Hradec Kralove
(50.2170°N, 15.8330°E)
Time: 06:06:48
(UTC+01:00)

YUBILEINY - Visible Passes

Search period start: 27 February 2024 00:00
Search period end: 08 March 2024 00:00
Orbit: 1478 x 1508 km, 82.5° (Epoch: 26 February)

Date Brightness Start Highest point End Pass type
(mag) Time Alt. Az. Time Alt. Az. Time Alt. Az.
27 Feb ? 01:32:05 38° NNW 01:32:05 38° NNW 01:37:21 10° N visible
27 Feb ? 03:27:59 16° NW 03:28:00 16° NW 03:32:57 10° N visible
27 Feb ? 22:46:51 19° NE 22:46:51 19° NE 22:49:47 10° NNE visible
28 Feb ? 00:42:44 40° N 00:42:44 40° N 00:47:45 10° N visible
28 Feb ? 02:38:38 24° NW 02:38:38 24° NW 02:44:04 10° N visible
28 Feb ? 21:57:30 11° NE 21:57:30 11° NE 21:58:20 10° NE visible
28 Feb ? 23:53:23 34° NNE 23:53:23 34° NNE 23:57:57 10° NNE visible
29 Feb ? 01:49:16 33° NNW 01:49:16 33° NNW 01:54:47 10° N visible
29 Feb ? 03:45:09 11° NW 03:46:43 11° NW 03:49:08 10° NNW visible
29 Feb ? 23:04:01 25° NE 23:04:01 25° NE 23:07:53 10° NNE visible
01 Mar ? 00:59:54 40° N 00:59:54 40° N 01:05:18 10° N visible
01 Mar ? 02:55:48 18° NW 02:55:48 18° NW 03:01:10 10° N visible
01 Mar ? 22:14:39 17° NE 22:14:39 17° NE 22:17:21 10° NNE visible
02 Mar ? 00:10:32 40° NNE 00:10:32 40° NNE 00:15:38 10° NNE visible
02 Mar ? 02:06:25 27° NW 02:06:25 27° NW 02:12:08 10° N visible
02 Mar ? 23:21:09 33° NE 23:21:09 33° NE 23:25:47 10° NNE visible
03 Mar ? 01:17:02 37° NNW 01:17:02 37° NNW 01:22:47 10° N visible
03 Mar ? 03:12:55 13° NW 03:14:07 13° NW 03:17:51 10° NNW visible
03 Mar ? 22:31:46 24° NE 22:31:46 24° NE 22:35:37 10° NNE visible
04 Mar ? 00:27:38 44° N 00:27:38 44° N 00:33:14 10° N visible
04 Mar ? 02:23:32 21° NW 02:23:32 21° NW 02:29:20 10° N visible
04 Mar ? 21:42:21 15° NE 21:42:21 15° NE 21:44:48 10° NE visible
04 Mar ? 23:38:15 41° NNE 23:38:15 41° NNE 23:43:32 10° NNE visible
05 Mar ? 01:34:07 31° NW 01:34:07 31° NW 01:40:09 10° N visible
05 Mar ? 22:48:49 32° NE 22:48:49 32° NE 22:53:36 10° NNE visible
06 Mar ? 00:44:43 42° NNW 00:44:43 42° NNW 00:50:45 10° N visible
06 Mar ? 02:40:36 15° NW 02:41:33 15° NW 02:46:15 10° N visible
06 Mar ? 21:59:25 22° NE 21:59:25 22° NE 22:03:18 10° NNE visible
06 Mar ? 23:55:17 48° N 23:55:17 48° N 00:01:10 10° N visible
07 Mar ? 01:51:10 24° NW 01:51:10 24° NW 01:57:26 10° N visible
07 Mar ? 21:09:58 13° NE 21:09:58 13° NE 21:12:05 10° NE visible
07 Mar ? 23:05:51 42° NNE 23:05:51 42° NNE 23:11:23 10° NNE visible
